Miscellaneous Local Product
Issued by NWS North Platte, NE

Home | Current Version | Previous Version | Graphics & Text | Print | Product List | Glossary On
Versions: 1 2 3 4 5 6 7 8 9 10 11 12 13 14 15 16 17 18 19 20 21 22 23 24 25 26 27 28 29 30 31 32 33 34 35 36 37 38 39 40 41 42 43 44 45 46 47 48 49 50
000
AXUS43 KLBF 241710
MISLBF


WESTERN AND NORTH CENTRAL NEBRASKA HOURLY WEATHER ROUNDUP
NATIONAL WEATHER SERVICE NORTH PLATTE NE
1200 PM CDT SUN SEP 24 2017

NOTE: "FAIR" INDICATES FEW OR NO CLOUDS BELOW 12,000 FEET WITH NO
SIGNIFICANT WEATHER AND/OR OBSTRUCTIONS TO VISIBILITY.

NOTE: STATIONS NOT REPORTING VARIABLES SUCH AS SKY/WEATHER OR
PRESSURE ARE PROVIDED BY RAWS AND APRS NETWORKS AND ARE NOT UNDER
NATIONAL WEATHER SERVICE QUALITY CONTROL.

...OBSERVATIONS IN AND NEAR THE EASTERN PANHANDLE OF NEBRASKA...

CITY           SKY/WX    TMP DP  RH WIND       PRES   REMARKS
PINE RIDGE     CLOUDY    47  46  97 N8        30.05R
GORDON         CLOUDY    46  45  94 N10       30.03R
CHADRON        CLOUDY    50  43  77 NE12      30.05R
ALLIANCE       CLOUDY    49  43  80 N13       30.02R
SIDNEY         CLOUDY    49  45  86 NE12      30.02S
CRESCENT LAKE    N/A     51  45  80 N10         N/A
$$

...OBSERVATIONS IN NORTHERN NEBRASKA AND FAR SOUTHERN SOUTH DAKOTA...

CITY           SKY/WX    TMP DP  RH WIND       PRES   REMARKS
WINNER         CLOUDY    53  51  93 NW13      29.99R
VALENTINE      CLOUDY    52  48  86 N10       30.01R
THEDFORD       CLOUDY    52  50  93 N9        30.00R
AINSWORTH      CLOUDY    51  51 100 NW10      29.99R
O`NEILL        LGT RAIN  54  54 100 W9        29.98R
ORD            LGT RAIN  54  51  90 N9        29.94S
BROKEN BOW     LGT RAIN  54  52  93 N13       29.96R
HALSEY           N/A     50  50  99 NW7         N/A
BUTTE            N/A     53  51  95 W8          N/A
CHAMBERS         N/A     55  54  97 CALM        N/A
EWING            N/A     56  55  95 NW8         N/A
$$

...OBSERVATIONS IN SOUTHWEST NEBRASKA AND FAR NORTHEAST COLORADO...

CITY           SKY/WX    TMP DP  RH WIND       PRES   REMARKS
WRAY           CLOUDY    50  50 100 N9        30.02R
HOLYOKE        CLOUDY    54  48  82 N14       30.01S
IMPERIAL       CLOUDY    52  48  86 N14       30.00R
OGALLALA       CLOUDY    54  48  81 N12       30.00S
NORTH PLATTE   CLOUDY    54  50  86 N12       29.99R
MCCOOK         CLOUDY    54  53  97 N12       29.97R
LEXINGTON      RAIN      55  54  94 NW8       29.96R
STAPLETON        N/A     50  49  97 CALM        N/A
CALLAWAY         N/A     53  52  97 N8          N/A
$$

...OBSERVATIONS IN CENTRAL LINCOLN COUNTY AREA...

CITY           SKY/WX    TMP DP  RH WIND       PRES   REMARKS
N.P. AIRPORT   CLOUDY    54  50  86 N12       29.99R
N.P. DOWNTOWN    N/A     53  50  91 NE6G13      N/A
N.P. SOUTHEAST   N/A     52  49  90 N6          N/A
N.P. HILLCREST   N/A     52  50  92 NE17        N/A
$$

...SOME OBSERVATIONS FROM AROUND THE REGION...

CITY           SKY/WX    TMP DP  RH WIND       PRES   REMARKS
DENVER         CLOUDY    47  45  93 NE8       30.01S FOG
LIMON            N/A    N/A N/A N/A MISG      30.01R
ASPEN          SUNNY     51  37  58 N9        29.92S
LARAMIE        CLOUDY    43  36  76 E17       29.99R
CASPER         LGT RAIN  40  36  86 NE13      30.06S WCI  32
CHEYENNE       LGT RAIN  41  40  96 NE10      30.03R FOG
SCOTTSBLUFF    CLOUDY    49  43  80 N5        30.04S
GRAND ISLAND   MOSUNNY   76  64  66 W10       29.92S
OMAHA          PTSUNNY   83  66  56 S10       29.92S
SIOUX FALLS    CLOUDY    79  68  69 S22       29.87R
PIERRE         CLOUDY    52  48  86 NW15      29.97R
RAPID CITY     CLOUDY    46  43  87 NW15      30.05R
BISMARCK       LGT RAIN  50  49  96 N9        30.00S
KANSAS CITY    MOSUNNY   84  70  62 S12       29.99R
HILL CITY      LGT RAIN  65  64  97 SW7       29.97R
WICHITA        MOSUNNY   86  65  49 S20       29.93F
DODGE CITY     PTSUNNY   65  63  93 SE7       29.95F
OKLAHOMA CITY  PTSUNNY   84  65  52 S14G26    29.95F
DALLAS         PTSUNNY   85  69  58 SE15G22   29.94S
$$




USA.gov is the U.S. government's official web portal to all federal, state and local government web resources and services.